Total_Precipitation_Accumulation
0.07 0.06 0.06 0.06 0.05 0.03 0.00 0.00 0.00 0.00 0.00 0.00 0.00 0.00 0.00 0.00 0.00 0.01 0.01 0.01 0.02 0.04 0.07 0.17 0.24 0.29 0.36 0.38 0.36 0.32 0.29 0.36 0.41 0.44 0.49 0.57 0.57 0.53 0.53 0.51 0.49 0.51 0.59 0.62 0.64 0.62 0.60 0.53 0.53
0.06 0.08 0.09 0.09 0.05 0.01 0.00 0.00 0.00 0.00 0.00 0.00 0.00 0.00 0.00 0.00 0.00 0.00 0.01 0.01 0.02 0.02 0.05 0.12 0.23 0.29 0.35 0.37 0.35 0.33 0.32 0.33 0.38 0.42 0.46 0.51 0.53 0.54 0.53 0.49 0.49 0.53 0.61 0.66 0.68 0.68 0.64 0.58 0.53
0.10 0.13 0.12 0.10 0.04 0.00 0.00 0.00 0.00 0.00 0.00 0.00 0.00 0.00 0.00 0.00 0.00 0.00 0.01 0.01 0.01 0.02 0.04 0.12 0.23 0.30 0.36 0.39 0.38 0.37 0.36 0.36 0.38 0.41 0.47 0.54 0.53 0.52 0.49 0.46 0.45 0.51 0.60 0.67 0.68 0.63 0.60 0.59 0.56
0.12 0.17 0.15 0.09 0.02 0.00 0.00 0.00 0.00 0.00 0.00 0.00 0.00 0.00 0.00 0.00 0.00 0.00 0.01 0.01 0.01 0.03 0.05 0.14 0.25 0.32 0.37 0.40 0.41 0.40 0.40 0.42 0.44 0.45 0.50 0.57 0.58 0.57 0.52 0.46 0.43 0.44 0.51 0.59 0.59 0.57 0.57 0.57 0.52
0.17 0.18 0.16 0.08 0.01 0.00 0.00 0.00 0.00 0.00 0.00 0.00 0.00 0.00 0.00 0.00 0.00 0.00 0.01 0.01 0.01 0.03 0.06 0.15 0.29 0.36 0.41 0.43 0.43 0.44 0.45 0.48 0.51 0.53 0.56 0.60 0.59 0.59 0.57 0.54 0.50 0.46 0.45 0.49 0.52 0.52 0.54 0.55 0.50
0.23 0.21 0.14 0.05 0.01 0.00 0.00 0.00 0.00 0.00 0.00 0.00 0.00 0.00 0.00 0.00 0.01 0.01 0.01 0.01 0.02 0.04 0.08 0.18 0.34 0.41 0.46 0.49 0.48 0.49 0.51 0.54 0.56 0.59 0.62 0.62 0.59 0.58 0.57 0.56 0.51 0.46 0.43 0.42 0.44 0.46 0.48 0.49 0.48
0.23 0.22 0.12 0.05 0.02 0.01 0.01 0.00 0.01 0.00 0.00 0.00 0.00 0.01 0.01 0.01 0.01 0.01 0.02 0.03 0.04 0.06 0.11 0.20 0.33 0.41 0.49 0.53 0.52 0.54 0.56 0.57 0.61 0.63 0.65 0.65 0.60 0.60 0.62 0.58 0.52 0.49 0.47 0.42 0.38 0.38 0.39 0.38 0.41
0.26 0.30 0.16 0.06 0.03 0.02 0.00 0.00 0.01 0.01 0.01 0.00 0.01 0.01 0.01 0.01 0.02 0.02 0.04 0.05 0.07 0.10 0.15 0.23 0.33 0.40 0.47 0.54 0.57 0.57 0.60 0.63 0.66 0.69 0.67 0.63 0.64 0.64 0.62 0.55 0.50 0.51 0.51 0.46 0.41 0.39 0.36 0.33 0.33
0.36 0.41 0.20 0.06 0.04 0.03 0.02 0.02 0.01 0.01 0.02 0.01 0.01 0.01 0.01 0.01 0.02 0.04 0.07 0.10 0.14 0.17 0.21 0.28 0.38 0.45 0.51 0.57 0.60 0.67 0.72 0.77 0.79 0.75 0.71 0.72 0.70 0.65 0.56 0.48 0.47 0.51 0.52 0.47 0.44 0.43 0.39 0.36 0.30
0.40 0.35 0.15 0.04 0.03 0.05 0.05 0.05 0.04 0.04 0.03 0.02 0.02 0.02 0.02 0.02 0.04 0.06 0.08 0.11 0.14 0.18 0.23 0.31 0.41 0.48 0.56 0.61 0.70 0.81 0.81 0.84 0.82 0.73 0.69 0.71 0.65 0.62 0.56 0.51 0.49 0.53 0.53 0.51 0.49 0.48 0.47 0.42 0.33
0.31 0.23 0.10 0.06 0.04 0.07 0.07 0.07 0.08 0.09 0.07 0.03 0.04 0.04 0.03 0.04 0.07 0.10 0.11 0.12 0.12 0.15 0.21 0.30 0.43 0.54 0.59 0.63 0.71 0.81 0.83 0.83 0.84 0.78 0.73 0.71 0.73 0.70 0.65 0.60 0.61 0.60 0.57 0.56 0.56 0.59 0.54 0.49 0.45
0.24 0.16 0.11 0.09 0.09 0.10 0.11 0.10 0.10 0.10 0.08 0.04 0.04 0.06 0.06 0.07 0.09 0.10 0.12 0.13 0.15 0.18 0.24 0.34 0.47 0.56 0.59 0.61 0.68 0.74 0.76 0.75 0.76 0.75 0.77 0.78 0.78 0.73 0.71 0.66 0.67 0.68 0.66 0.63 0.61 0.58 0.55 0.52 0.47
0.21 0.12 0.09 0.10 0.12 0.13 0.13 0.11 0.10 0.07 0.04 0.05 0.05 0.06 0.08 0.08 0.09 0.10 0.12 0.17 0.19 0.21 0.29 0.40 0.49 0.56 0.64 0.68 0.73 0.75 0.71 0.67 0.70 0.74 0.78 0.73 0.68 0.62 0.57 0.56 0.55 0.51 0.50 0.50 0.52 0.53 0.52 0.50 0.47
0.18 0.13 0.10 0.11 0.13 0.14 0.15 0.11 0.09 0.05 0.03 0.05 0.07 0.07 0.08 0.08 0.10 0.11 0.13 0.19 0.23 0.24 0.31 0.44 0.54 0.61 0.69 0.69 0.72 0.74 0.71 0.67 0.70 0.70 0.68 0.66 0.63 0.58 0.52 0.49 0.49 0.45 0.40 0.38 0.38 0.38 0.40 0.41 0.39
0.20 0.21 0.15 0.09 0.10 0.12 0.19 0.18 0.07 0.04 0.04 0.07 0.09 0.08 0.08 0.08 0.10 0.11 0.12 0.15 0.20 0.27 0.36 0.46 0.58 0.71 0.77 0.75 0.77 0.80 0.77 0.73 0.70 0.69 0.66 0.66 0.62 0.60 0.57 0.52 0.48 0.46 0.45 0.45 0.42 0.41 0.40 0.37 0.34
0.31 0.36 0.27 0.10 0.08 0.12 0.27 0.23 0.06 0.04 0.08 0.10 0.10 0.10 0.09 0.08 0.10 0.13 0.15 0.16 0.20 0.30 0.41 0.50 0.63 0.77 0.85 0.84 0.83 0.83 0.83 0.82 0.77 0.72 0.70 0.66 0.63 0.60 0.59 0.57 0.53 0.53 0.54 0.54 0.53 0.47 0.45 0.41 0.37
0.42 0.38 0.22 0.09 0.08 0.15 0.27 0.21 0.05 0.05 0.09 0.10 0.11 0.11 0.11 0.10 0.12 0.15 0.17 0.19 0.21 0.29 0.40 0.52 0.63 0.77 0.90 0.96 0.92 0.91 0.86 0.87 0.86 0.80 0.73 0.70 0.64 0.60 0.59 0.58 0.60 0.62 0.66 0.64 0.59 0.55 0.48 0.45 0.42
0.39 0.26 0.16 0.09 0.08 0.14 0.20 0.14 0.06 0.06 0.10 0.10 0.11 0.13 0.12 0.14 0.15 0.17 0.20 0.23 0.25 0.29 0.40 0.53 0.66 0.83 0.96 1.12 1.15 1.12 1.04 0.92 0.90 0.86 0.76 0.70 0.69 0.65 0.63 0.62 0.63 0.68 0.71 0.69 0.66 0.59 0.53 0.48 0.47
0.26 0.25 0.18 0.08 0.07 0.15 0.15 0.10 0.08 0.08 0.10 0.11 0.12 0.14 0.15 0.16 0.19 0.21 0.27 0.33 0.36 0.38 0.43 0.52 0.66 0.83 1.01 1.14 1.21 1.17 1.11 0.96 0.90 0.88 0.84 0.75 0.71 0.74 0.73 0.67 0.67 0.66 0.68 0.66 0.64 0.64 0.63 0.58 0.54
0.29 0.33 0.24 0.13 0.09 0.18 0.17 0.10 0.07 0.08 0.11 0.13 0.13 0.16 0.18 0.16 0.18 0.19 0.24 0.36 0.41 0.44 0.46 0.50 0.62 0.75 0.92 1.06 1.11 1.18 1.13 1.04 0.94 0.92 0.89 0.82 0.73 0.76 0.82 0.76 0.70 0.68 0.66 0.69 0.70 0.69 0.69 0.70 0.65
0.35 0.31 0.23 0.19 0.16 0.20 0.24 0.17 0.06 0.05 0.07 0.10 0.11 0.13 0.16 0.18 0.18 0.19 0.23 0.32 0.41 0.45 0.49 0.54 0.59 0.66 0.78 1.04 1.27 1.39 1.43 1.31 1.14 1.02 0.94 0.83 0.75 0.70 0.78 0.83 0.77 0.72 0.69 0.67 0.66 0.65 0.66 0.69 0.64
0.40 0.20 0.20 0.24 0.38 0.39 0.33 0.36 0.09 0.04 0.05 0.07 0.09 0.10 0.11 0.15 0.15 0.16 0.20 0.28 0.36 0.44 0.54 0.63 0.62 0.69 0.79 0.97 1.27 1.43 1.47 1.35 1.10 0.95 0.91 0.88 0.82 0.75 0.72 0.80 0.82 0.80 0.77 0.72 0.67 0.65 0.64 0.70 0.73
0.31 0.21 0.24 0.30 0.47 0.56 0.39 0.44 0.14 0.06 0.08 0.06 0.06 0.08 0.09 0.12 0.14 0.14 0.17 0.22 0.31 0.44 0.56 0.68 0.74 0.79 0.89 0.97 1.15 1.38 1.48 1.41 1.27 1.12 1.00 0.94 0.92 0.88 0.79 0.76 0.80 0.82 0.81 0.80 0.74 0.69 0.70 0.73 0.76
0.28 0.34 0.43 0.50 0.82 1.06 0.38 0.36 0.21 0.12 0.13 0.10 0.08 0.09 0.10 0.13 0.15 0.13 0.14 0.17 0.27 0.42 0.51 0.67 0.80 0.83 0.95 1.00 1.11 1.24 1.41 1.51 1.48 1.36 1.23 1.08 1.02 0.97 0.94 0.82 0.79 0.80 0.81 0.82 0.79 0.73 0.72 0.74 0.75
0.53 0.90 1.36 1.46 1.52 0.93 0.19 0.25 0.23 0.12 0.09 0.12 0.14 0.12 0.12 0.12 0.14 0.14 0.13 0.14 0.22 0.39 0.50 0.63 0.80 0.81 0.90 0.97 1.06 1.17 1.32 1.47 1.58 1.48 1.32 1.21 1.17 1.08 0.98 0.93 0.84 0.81 0.80 0.80 0.81 0.82 0.76 0.72 0.77
0.57 0.84 1.14 1.04 0.65 0.24 0.12 0.20 0.18 0.11 0.07 0.06 0.08 0.11 0.12 0.12 0.12 0.14 0.14 0.14 0.18 0.28 0.41 0.54 0.75 0.77 0.80 0.88 0.97 1.11 1.28 1.46 1.55 1.57 1.40 1.28 1.20 1.10 0.98 0.95 0.89 0.83 0.84 0.86 0.85 0.83 0.81 0.76 0.74
0.52 0.58 0.53 0.75 0.53 0.31 0.21 0.17 0.13 0.07 0.04 0.04 0.05 0.06 0.09 0.12 0.11 0.12 0.15 0.15 0.19 0.24 0.34 0.47 0.70 0.78 0.73 0.79 0.88 1.01 1.16 1.37 1.46 1.49 1.48 1.35 1.27 1.21 1.13 1.05 1.00 0.93 0.91 0.90 0.90 0.87 0.82 0.81 0.82
0.43 0.54 0.62 1.00 0.93 0.55 0.30 0.18 0.19 0.13 0.08 0.06 0.06 0.07 0.09 0.10 0.10 0.10 0.13 0.14 0.17 0.22 0.31 0.44 0.61 0.79 0.77 0.77 0.84 0.93 1.01 1.18 1.32 1.44 1.53 1.41 1.34 1.31 1.32 1.26 1.20 1.10 1.05 1.03 1.00 0.95 0.86 0.85 0.85
0.53 0.69 0.89 0.92 0.72 0.58 0.42 0.29 0.26 0.19 0.14 0.11 0.09 0.08 0.08 0.09 0.10 0.10 0.12 0.12 0.15 0.18 0.25 0.41 0.55 0.70 0.83 0.85 0.83 0.92 1.00 1.12 1.22 1.26 1.33 1.42 1.42 1.36 1.42 1.46 1.41 1.32 1.23 1.19 1.18 1.12 1.04 0.99 0.92
0.56 0.65 0.77 0.96 0.74 0.41 0.40 0.34 0.23 0.16 0.14 0.12 0.10 0.08 0.07 0.08 0.09 0.10 0.11 0.12 0.13 0.16 0.22 0.34 0.51 0.64 0.76 0.86 0.89 0.91 0.99 1.13 1.18 1.15 1.14 1.21 1.31 1.34 1.39 1.56 1.58 1.52 1.41 1.33 1.34 1.34 1.26 1.21 1.12